Flag for Venezuela Weather past 2 weeks in San Cristóbal, Venezuela

Now
81 °F

Passing clouds.


Feels Like: 83 °F
Forecast: 62 / 89 °F
Wind: N/A

Location: San Antonio Del Tachira Airport

Current Time: Aug 21, 2014 at 11:42:01 PM

Latest Report: Aug 21, 2014 at 10:30 PM


Visibility: N/A

Pressure: 29.98 "Hg

Humidity: 66%

Dew point: 68 °F

Location of San CristóbalLocation

Historic Weather in San Cristóbal — Graph

°F

San Cristóbal temperature yesterday

Maximum temperature yesterday: 90 °F (at 11:30 AM)
Minimum temperature yesterday: 73 °F (at 6:30 AM)
Average temperature yesterday: 83 °F

Past Weeks' High & Low Weather Summary

 TemperatureHumidityPressure
High99 °F (Aug 12, 12:30 PM)100% (Aug 14, 1:30 PM)30.01 "Hg (Aug 14, 1:30 PM)
Low72 °F (Aug 14, 5:30 AM)26% (Aug 11, 3:30 PM)29.62 "Hg (Aug 15, 7:30 PM)
Average85 °F51%29.93 "Hg
* Reported Aug 6 9:30 PM — Aug 21 9:30 PM, San Cristóbal, Weather by CustomWeather, © 2014

Note: Actual official high and low records may vary slightly from our data, if they occured in-between our weather recording intervals... More about our weather records

Advertising

San Cristóbal weather history for previous 24 hours

 ConditionsComfort  
Time TempWeatherWind HumidityBarometerVisibility
9:30 PM
Aug 21
81 °FPassing clouds.N/A66%29.95 "HgN/A
8:30 PM82 °FPassing clouds.N/A66%29.92 "HgN/A
7:30 PM84 °FPassing clouds.N/A66%29.89 "HgN/A
6:30 PM86 °FPassing clouds.N/A59%29.86 "HgN/A
5:30 PM90 °FPassing clouds.N/A52%29.86 "HgN/A
4:30 PM93 °FPartly sunny.N/A41%29.83 "HgN/A
3:30 PM93 °FPassing clouds.N/A39%29.83 "HgN/A
2:30 PM97 °FPassing clouds.N/A37%29.86 "HgN/A
1:30 PM95 °FPassing clouds.N/A39%29.86 "HgN/A
12:30 PM93 °FPassing clouds.N/A41%29.92 "HgN/A
11:30 AM91 °FScattered clouds.N/A44%29.95 "HgN/A
10:30 AM88 °FPartly sunny.N/A49%29.95 "HgN/A
9:30 AM84 °FPartly sunny.N/A58%29.98 "HgN/A
8:30 AM79 °FPartly sunny.N/A70%29.98 "HgN/A
7:30 AM77 °FBroken clouds.N/A69%29.98 "HgN/A
6:30 AM81 °FPartly sunny.N/A51%29.95 "HgN/A
5:30 AM81 °FPassing clouds.N/A54%29.95 "HgN/A
4:30 AM79 °FPassing clouds.N/A61%29.95 "HgN/A
1:30 AM79 °FPassing clouds.N/A58%29.95 "HgN/A
Weather by CustomWeather, © 2014

See weather overviewHow to use our weather pages